User: anonymous   Login
Location: Unspecified
(0.0000°N, 0.0000°E)
Time: 02:51:32
(UTC+00:00)
Language:

UME 2 Rocket - Orbit

View from above orbital plane
View from above orbital plane
View from above satellite
View from above satellite

Ground track
Ground track

The orbit data is extracted from the following two-line orbital elements,

1 10674U 78018A   17147.27716799 -.00000044 +00000-0 +82304-5 0  9991
2 10674 069.3626 080.7357 0160887 099.6809 010.7623 13.43602645926328
Epoch (UTC): 27 May 2017 06:39:07
Eccentricity: 0.0160887
inclination: 69.3626°
perigee height: 975 km
apogee height: 1216 km
right ascension of ascending node: 80.7357°
argument of perigee: 99.6809°
revolutions per day: 13.43602645
mean anomaly at epoch: 10.7623°
orbit number at epoch: 92632

The dashed part of the orbit path shows where the satellite is in the earth's shadow,  

DLR